DECAYED
Showing default

UNICORN-2O, 63980 (Decayed)

Orbit data source: Space-Track

UNICORN-2O, 63980 was a payload satellite owned by Alba Orbital (DE) in LEO that was launched on Sat, 15 Mar 2025 UTC via an FALCON 9 launch vehicle from the Air Force Western Test Range (AFWTR). Payload-class satellites include a variety of spacecraft equipped with specific instruments for various scientific and technological missions. These include communications satellites like Starlink; space stations such as the ISS; scientific satellites like the Hubble; Earth observation satellites from companies like Planet Labs, Umbra, and HawkEye 360; GPS; miniature CubeSats for education and research; and military/defense satellites.

Not visible in the next 10 days
Identifier
63980, 2025-052BS
Orbit
Decayed
Country
Flag of DEDE / GER
Related business
Manufacturer
Alba Orbital
Mission
Decayed Commercial Imaging
Bus & Motor
POCKETQUBE 3P, Unknown motor
Mass
~0.75 kg wet, ~0.75 kg dry
Launch date (UTC)
2025-03-15 (1 year ago)
Launch vehicle
FALCON 9
Launch site
Air Force Western Test Range (AFWTR)
Object type
Payload
Rocket body
Debris
Shape & HBR
Box + 2 Pan, 0.1 m
Radar Cross Section
0.016 m², Small (<0.1 m²)

Expand to show TLE details & history
Last TLE update: 3 months ago

TLE from 3 months ago
0 UNICORN-2O
1 63980U 25052BS  26046.23064614  .07374698  24226-5  45213-2 0  9996
2 63980  97.3693 306.5452 0009140 143.6049 216.5862 16.18030447 51696
Epoch: 2026-02-15T05:32Z
TLE epoch observation values (Epoch: 2026-02-15T05:32:07.826Z)
Latitude
-0.00002°
Longitude
78.27027°
Altitude
232.977 km
Speed
7.764 km/s
True Right ascension
20h 26m 10s
True Declination
0° 00' 00"
Sunlit
Object was in daylight at epoch
Visualization orbit readout
Latitude
Unknown
Longitude
Unknown
Altitude
Unknown
Speed
Unknown
Apparent Right ascension
Unknown
Apparent Declination
Unknown
Sunlit
N/A
Visualization observer readout
Local Sidereal Time
10:33:44
Azimuth
Unknown
Elevation
Unknown
Doppler factor
Unknown
Orbital elements
Apogee altitude
227.772 km
Perigee altitude
215.707 km
Semi-major axis
6,599.877 km
Eccentricity
0.00091
Inclination
97.3693°
RAAN
306.5452°
Arg. of periapsis
143.6049°
True anomaly
216.52383°
Mean anomaly
216.5862°
Eccentric anomaly
216.55501°
Mean motion
4.04799 °/min
Orbital period
88.93 mins
BSTAR
0.0045213
Loading maneuver chart data...
Computing Atmospheric mass density...
Loading historical data...
Loading historical data...
Loading historical data...
Loading historical data...
Loading historical data...
Loading historical data...
Loading historical data...

Documentation

Showing up to 5 results
|